| time (UTC) | temp F | wind direction | speed MPH | gust MPH | rain 1hr in | rain 24hr in | rain mn in | humidity % | barometer mb |
| 20260901101228 | 70 | 0 | 0.0 | 0.0 | 0.00 | 0.00 | 0.00 | 99 | 1022.3 |
| 20260901100722 | 71 | 0 | 0.0 | 0.0 | 0.00 | 0.00 | 0.00 | 99 | 1022.3 |
| 20260901100217 | 71 | 278 | 0.0 | 0.0 | 0.00 | 0.00 | 0.00 | 99 | 1022.6 |
| 20260901095716 | 71 | 278 | 0.0 | 0.0 | 0.00 | 0.00 | 0.00 | 99 | 1022.2 |
| 20260901095213 | 71 | 278 | 0.0 | 0.0 | 0.00 | 0.00 | 0.00 | 99 | 1022.5 |
| 20260901094713 | 71 | 286 | 0.0 | 0.0 | 0.00 | 0.00 | 0.00 | 99 | 1022.4 |
| 20260901094208 | 71 | 353 | 0.0 | 0.0 | 0.00 | 0.00 | 0.00 | 99 | 1022.3 |
| 20260901093703 | 71 | 82 | 0.0 | 0.0 | 0.00 | 0.00 | 0.00 | 99 | 1022.2 |
| 20260901093203 | 71 | 82 | 0.0 | 1.0 | 0.00 | 0.00 | 0.00 | 99 | 1022.2 |
| 20260901092658 | 71 | 345 | 0.0 | 0.0 | 0.00 | 0.00 | 0.00 | 99 | 1022.3 |
| 20260901092154 | 71 | 345 | 0.0 | 0.0 | 0.00 | 0.00 | 0.00 | 99 | 1021.9 |
| 20260901091649 | 71 | 345 | 0.0 | 0.0 | 0.00 | 0.00 | 0.00 | 99 | 1022.2 |
| 20260901091144 | 71 | 345 | 0.0 | 0.0 | 0.00 | 0.00 | 0.00 | 99 | 1022.1 |
| 20260901090639 | 71 | 345 | 0.0 | 0.0 | 0.00 | 0.00 | 0.00 | 99 | 1022.4 |
| 20260901090135 | 71 | 345 | 0.0 | 0.0 | 0.00 | 0.00 | 0.00 | 99 | 1022.4 |
| 20260901085630 | 71 | 345 | 0.0 | 0.0 | 0.00 | 0.00 | 0.00 | 99 | 1022.7 |
| 20260901085125 | 71 | 331 | 0.0 | 0.0 | 0.00 | 0.00 | 0.00 | 99 | 1022.5 |
| 20260901084622 | 71 | 331 | 0.0 | 0.0 | 0.00 | 0.00 | 0.00 | 99 | 1022.6 |
| 20260901084118 | 71 | 331 | 0.0 | 0.0 | 0.00 | 0.00 | 0.00 | 99 | 1022.6 |
| 20260901083618 | 72 | 331 | 0.0 | 0.0 | 0.00 | 0.00 | 0.00 | 99 | 1022.3 |
| 20260901083116 | 72 | 331 | 0.0 | 0.0 | 0.00 | 0.00 | 0.00 | 99 | 1022.3 |
| 20260901082611 | 72 | 331 | 0.0 | 2.0 | 0.00 | 0.00 | 0.00 | 99 | 1022.6 |
| 20260901082107 | 72 | 345 | 0.0 | 1.0 | 0.00 | 0.00 | 0.00 | 99 | 1022.5 |
| 20260901081601 | 71 | 286 | 0.0 | 0.0 | 0.00 | 0.00 | 0.00 | 99 | 1022.5 |
| 20260901081056 | 72 | 286 | 0.0 | 0.0 | 0.00 | 0.00 | 0.00 | 99 | 1022.5 |
| 20260901080556 | 72 | 286 | 0.0 | 0.0 | 0.00 | 0.00 | 0.00 | 99 | 1022.5 |
| 20260901080054 | 72 | 286 | 0.0 | 1.0 | 0.00 | 0.00 | 0.00 | 99 | 1022.7 |
| 20260901075551 | 72 | 8 | 0.0 | 0.0 | 0.00 | 0.00 | 0.00 | 99 | 1022.7 |
| 20260901075050 | 72 | 8 | 0.0 | 2.0 | 0.00 | 0.00 | 0.00 | 99 | 1022.7 |
| 20260901074549 | 72 | 279 | 0.0 | 1.0 | 0.00 | 0.00 | 0.00 | 99 | 1022.7 |
| 20260901074045 | 72 | 278 | 0.0 | 0.0 | 0.00 | 0.00 | 0.00 | 99 | 1022.7 |
| 20260901073542 | 72 | 278 | 0.0 | 0.0 | 0.00 | 0.00 | 0.00 | 99 | 1022.5 |
| 20260901073037 | 72 | 278 | 0.0 | 0.0 | 0.00 | 0.00 | 0.00 | 99 | 1022.5 |
| 20260901072537 | 72 | 278 | 0.0 | 1.0 | 0.00 | 0.00 | 0.00 | 99 | 1022.7 |
| 20260901072032 | 72 | 345 | 0.0 | 0.0 | 0.00 | 0.00 | 0.00 | 99 | 1022.8 |
| 20260901071532 | 72 | 345 | 0.0 | 0.0 | 0.00 | 0.00 | 0.00 | 99 | 1022.6 |
| 20260901071030 | 72 | 345 | 0.0 | 0.0 | 0.00 | 0.00 | 0.00 | 99 | 1022.7 |
| 20260901070526 | 72 | 279 | 0.0 | 0.0 | 0.00 | 0.00 | 0.00 | 99 | 1022.7 |
| 20260901070021 | 72 | 279 | 0.0 | 0.0 | 0.00 | 0.00 | 0.00 | 99 | 1022.8 |
| 20260901065515 | 73 | 279 | 0.0 | 0.0 | 0.00 | 0.00 | 0.00 | 99 | 1022.9 |
| 20260901065010 | 72 | 337 | 1.0 | 1.0 | 0.00 | 0.00 | 0.00 | 99 | 1022.7 |
| 20260901064506 | 73 | 291 | 0.0 | 0.0 | 0.00 | 0.00 | 0.00 | 99 | 1022.8 |
| 20260901064003 | 73 | 0 | 0.0 | 2.0 | 0.00 | 0.00 | 0.00 | 99 | 1022.6 |
| 20260901063459 | 73 | 289 | 0.0 | 0.0 | 0.00 | 0.00 | 0.00 | 99 | 1022.8 |
| 20260901062955 | 73 | 0 | 0.0 | 0.0 | 0.00 | 0.00 | 0.00 | 99 | 1022.9 |
| 20260901062450 | 73 | 0 | 0.0 | 1.0 | 0.00 | 0.00 | 0.00 | 99 | 1022.7 |
| 20260901061941 | 73 | 294 | 0.0 | 0.0 | 0.00 | 0.00 | 0.00 | 99 | 1022.8 |
| 20260901061437 | 73 | 294 | 0.0 | 0.0 | 0.00 | 0.00 | 0.00 | 99 | 1022.9 |
| 20260901060931 | 73 | 294 | 0.0 | 0.0 | 0.00 | 0.00 | 0.00 | 99 | 1022.8 |
| 20260901060427 | 73 | 294 | 0.0 | 0.0 | 0.00 | 0.00 | 0.00 | 99 | 1022.9 |
| 20260901055926 | 72 | 294 | 0.0 | 0.0 | 0.00 | 0.00 | 0.00 | 99 | 1022.9 |
| 20260901055423 | 73 | 294 | 0.0 | 0.0 | 0.00 | 0.00 | 0.00 | 99 | 1023.0 |
| 20260901054919 | 73 | 294 | 0.0 | 0.0 | 0.00 | 0.00 | 0.00 | 99 | 1023.0 |
| 20260901054416 | 73 | 294 | 0.0 | 0.0 | 0.00 | 0.00 | 0.00 | 99 | 1023.1 |
| 20260901053912 | 73 | 294 | 0.0 | 0.0 | 0.00 | 0.00 | 0.00 | 99 | 1023.0 |
| 20260901053407 | 73 | 294 | 0.0 | 0.0 | 0.00 | 0.00 | 0.00 | 99 | 1022.8 |
| 20260901052903 | 73 | 294 | 0.0 | 0.0 | 0.00 | 0.00 | 0.00 | 99 | 1023.1 |
| 20260901052358 | 73 | 294 | 0.0 | 0.0 | 0.00 | 0.00 | 0.00 | 99 | 1022.9 |
| 20260901051856 | 73 | 294 | 0.0 | 0.0 | 0.00 | 0.00 | 0.00 | 98 | 1023.0 |
| 20260901051352 | 73 | 294 | 0.0 | 0.0 | 0.00 | 0.00 | 0.00 | 98 | 1022.7 |
| 20260901050846 | 74 | 294 | 0.0 | 0.0 | 0.00 | 0.00 | 0.00 | 98 | 1022.8 |
| 20260901050342 | 74 | 294 | 0.0 | 0.0 | 0.00 | 0.00 | 0.00 | 98 | 1023.0 |
| 20260901045837 | 74 | 294 | 0.0 | 0.0 | 0.00 | 0.00 | 0.00 | 98 | 1023.0 |
| 20260901045336 | 73 | 294 | 0.0 | 0.0 | 0.00 | 0.00 | 0.00 | 97 | 1023.0 |
| 20260901044832 | 73 | 294 | 0.0 | 0.0 | 0.00 | 0.00 | 0.00 | 97 | 1023.0 |
| 20260901044328 | 73 | 294 | 0.0 | 0.0 | 0.00 | 0.00 | 0.00 | 97 | 1023.0 |
| 20260901043824 | 73 | 294 | 0.0 | 0.0 | 0.00 | 0.00 | 0.00 | 98 | 1022.9 |
| 20260901043320 | 74 | 294 | 0.0 | 0.0 | 0.00 | 0.00 | 0.00 | 98 | 1022.9 |
| 20260901042819 | 74 | 294 | 0.0 | 0.0 | 0.00 | 0.00 | 0.00 | 98 | 1023.0 |
| 20260901042314 | 74 | 294 | 0.0 | 0.0 | 0.00 | 0.00 | 0.00 | 98 | 1022.9 |
| 20260901041809 | 74 | 294 | 0.0 | 0.0 | 0.00 | 0.00 | 0.00 | 98 | 1022.9 |
| 20260901041304 | 74 | 270 | 0.0 | 1.0 | 0.00 | 0.00 | 0.00 | 98 | 1022.9 |
| 20260901040759 | 75 | 7 | 0.0 | 1.0 | 0.00 | 0.00 | 0.00 | 98 | 1022.9 |
| 20260901040258 | 74 | 285 | 0.0 | 0.0 | 0.00 | 0.00 | 0.00 | 98 | 1022.6 |
| 20260901035756 | 74 | 285 | 0.0 | 0.0 | 0.00 | 0.00 | 0.00 | 97 | 1022.7 |
| 20260901035256 | 74 | 285 | 0.0 | 0.0 | 0.00 | 0.00 | 0.00 | 98 | 1022.7 |
| 20260901034755 | 74 | 285 | 0.0 | 0.0 | 0.00 | 0.00 | 0.00 | 97 | 1022.7 |
| 20260901034250 | 74 | 285 | 0.0 | 0.0 | 0.00 | 0.00 | 0.00 | 97 | 1022.8 |
| 20260901033750 | 74 | 285 | 0.0 | 0.0 | 0.00 | 0.00 | 0.00 | 96 | 1022.7 |
| 20260901033249 | 75 | 285 | 0.0 | 0.0 | 0.00 | 0.00 | 0.00 | 96 | 1022.6 |
| 20260901032748 | 74 | 285 | 0.0 | 0.0 | 0.00 | 0.00 | 0.00 | 96 | 1022.7 |
| 20260901032242 | 74 | 285 | 0.0 | 0.0 | 0.00 | 0.00 | 0.00 | 95 | 1022.8 |
| 20260901031738 | 74 | 285 | 0.0 | 0.0 | 0.00 | 0.00 | 0.00 | 95 | 1022.9 |
| 20260901031234 | 75 | 285 | 0.0 | 0.0 | 0.00 | 0.00 | 0.00 | 95 | 1022.7 |
| 20260901030733 | 75 | 285 | 0.0 | 0.0 | 0.00 | 0.00 | 0.00 | 95 | 1022.9 |
| 20260901030229 | 75 | 285 | 0.0 | 0.0 | 0.00 | 0.00 | 0.00 | 95 | 1022.7 |
| 20260901025728 | 75 | 285 | 0.0 | 0.0 | 0.00 | 0.00 | 0.00 | 95 | 1022.8 |
| 20260901025223 | 75 | 285 | 0.0 | 0.0 | 0.00 | 0.00 | 0.00 | 95 | 1023.0 |
| 20260901024718 | 75 | 285 | 0.0 | 0.0 | 0.00 | 0.00 | 0.00 | 95 | 1022.8 |
| 20260901024217 | 75 | 285 | 0.0 | 0.0 | 0.00 | 0.00 | 0.00 | 95 | 1022.8 |
| 20260901023715 | 76 | 285 | 0.0 | 0.0 | 0.00 | 0.00 | 0.00 | 95 | 1022.8 |
| 20260901023210 | 76 | 285 | 0.0 | 0.0 | 0.00 | 0.00 | 0.00 | 94 | 1022.9 |
| 20260901022706 | 76 | 285 | 0.0 | 0.0 | 0.00 | 0.00 | 0.00 | 94 | 1023.0 |
| 20260901022200 | 76 | 285 | 0.0 | 0.0 | 0.00 | 0.00 | 0.00 | 93 | 1022.9 |
| 20260901021656 | 76 | 285 | 0.0 | 0.0 | 0.00 | 0.00 | 0.00 | 93 | 1022.9 |
| 20260901021151 | 76 | 285 | 0.0 | 0.0 | 0.00 | 0.00 | 0.00 | 93 | 1022.7 |
| 20260901020647 | 76 | 285 | 0.0 | 0.0 | 0.00 | 0.00 | 0.00 | 93 | 1022.8 |
| 20260901020142 | 76 | 285 | 0.0 | 0.0 | 0.00 | 0.00 | 0.00 | 93 | 1022.8 |
| 20260901015637 | 76 | 285 | 0.0 | 0.0 | 0.00 | 0.00 | 0.00 | 92 | 1022.5 |
| 20260901015137 | 76 | 285 | 0.0 | 0.0 | 0.00 | 0.00 | 0.00 | 92 | 1022.5 |
| 20260901014631 | 76 | 285 | 0.0 | 0.0 | 0.00 | 0.00 | 0.00 | 92 | 1022.4 |
| 20260901014128 | 76 | 285 | 0.0 | 0.0 | 0.00 | 0.00 | 0.00 | 91 | 1022.4 |
| 20260901013623 | 77 | 285 | 0.0 | 0.0 | 0.00 | 0.00 | 0.00 | 91 | 1022.4 |
| 20260901013119 | 77 | 285 | 0.0 | 0.0 | 0.00 | 0.00 | 0.00 | 91 | 1022.3 |
| 20260901012619 | 77 | 285 | 0.0 | 0.0 | 0.00 | 0.00 | 0.00 | 91 | 1022.1 |
| 20260901012114 | 77 | 285 | 0.0 | 0.0 | 0.00 | 0.00 | 0.00 | 91 | 1022.1 |
| 20260901011611 | 77 | 285 | 0.0 | 0.0 | 0.00 | 0.00 | 0.00 | 90 | 1022.1 |
| 20260901011108 | 77 | 285 | 0.0 | 0.0 | 0.00 | 0.00 | 0.00 | 90 | 1022.0 |
| 20260901010604 | 78 | 285 | 0.0 | 0.0 | 0.00 | 0.00 | 0.00 | 89 | 1022.0 |
| 20260901005558 | 78 | 285 | 0.0 | 0.0 | 0.00 | 0.00 | 0.00 | 87 | 1021.8 |
| 20260901005053 | 78 | 285 | 0.0 | 0.0 | 0.00 | 0.00 | 0.00 | 87 | 1021.9 |
| 20260901004552 | 79 | 285 | 0.0 | 0.0 | 0.00 | 0.00 | 0.00 | 87 | 1021.8 |
| 20260901004047 | 79 | 285 | 0.0 | 0.0 | 0.00 | 0.00 | 0.00 | 86 | 1021.6 |
| 20260901003542 | 79 | 285 | 0.0 | 0.0 | 0.00 | 0.00 | 0.00 | 85 | 1021.7 |
| 20260901003040 | 79 | 285 | 0.0 | 0.0 | 0.00 | 0.00 | 0.00 | 85 | 1021.6 |
| 20260901002540 | 80 | 285 | 0.0 | 0.0 | 0.00 | 0.00 | 0.00 | 85 | 1021.6 |
| 20260901002035 | 80 | 285 | 0.0 | 0.0 | 0.00 | 0.00 | 0.00 | 83 | 1021.3 |
| 20260901001530 | 80 | 285 | 0.0 | 0.0 | 0.00 | 0.00 | 0.00 | 83 | 1021.4 |
| 20260901001025 | 81 | 285 | 0.0 | 0.0 | 0.00 | 0.00 | 0.00 | 82 | 1021.4 |
| 20260901000520 | 82 | 285 | 0.0 | 0.0 | 0.00 | 0.00 | 0.00 | 81 | 1021.2 |
| 20260901000016 | 82 | 285 | 0.0 | 0.0 | 0.00 | 0.00 | 0.00 | 80 | 1021.3 |
| 20260831235509 | 82 | 285 | 0.0 | 0.0 | 0.00 | 0.00 | 0.00 | 78 | 1021.5 |
| 20260831235005 | 83 | 285 | 0.0 | 0.0 | 0.00 | 0.00 | 0.00 | 78 | 1021.4 |
| 20260831234459 | 83 | 285 | 0.0 | 0.0 | 0.00 | 0.00 | 0.00 | 77 | 1021.2 |
| 20260831233955 | 84 | 285 | 0.0 | 0.0 | 0.00 | 0.00 | 0.00 | 76 | 1021.2 |
| 20260831233449 | 85 | 285 | 0.0 | 0.0 | 0.00 | 0.00 | 0.00 | 75 | 1021.5 |
| 20260831232945 | 85 | 285 | 0.0 | 0.0 | 0.00 | 0.00 | 0.00 | 73 | 1021.5 |
| 20260831232441 | 86 | 289 | 0.0 | 2.0 | 0.00 | 0.00 | 0.00 | 73 | 1021.4 |
| 20260831231936 | 86 | 306 | 0.0 | 0.0 | 0.00 | 0.00 | 0.00 | 72 | 1021.5 |
| 20260831231432 | 87 | 306 | 0.0 | 0.0 | 0.00 | 0.00 | 0.00 | 68 | 1021.5 |
| 20260831230928 | 87 | 279 | 1.0 | 2.0 | 0.00 | 0.00 | 0.00 | 66 | 1021.3 |
| 20260831230423 | 88 | 303 | 0.0 | 0.0 | 0.00 | 0.00 | 0.00 | 66 | 1021.6 |
| 20260831225917 | 90 | 303 | 0.0 | 0.0 | 0.00 | 0.00 | 0.00 | 66 | 1021.6 |
| 20260831225413 | 90 | 303 | 0.0 | 0.0 | 0.00 | 0.00 | 0.00 | 64 | 1021.8 |
| 20260831224908 | 90 | 303 | 0.0 | 0.0 | 0.00 | 0.00 | 0.00 | 64 | 1021.4 |
| 20260831224407 | 91 | 303 | 0.0 | 0.0 | 0.00 | 0.00 | 0.00 | 63 | 1021.8 |
| 20260831223902 | 91 | 303 | 0.0 | 0.0 | 0.00 | 0.00 | 0.00 | 62 | 1021.6 |
| 20260831223358 | 93 | 303 | 0.0 | 0.0 | 0.00 | 0.00 | 0.00 | 60 | 1021.5 |
| 20260831222855 | 93 | 303 | 0.0 | 0.0 | 0.00 | 0.00 | 0.00 | 59 | 1021.7 |
| 20260831222350 | 93 | 0 | 0.0 | 1.0 | 0.00 | 0.00 | 0.00 | 52 | 1021.8 |
| 20260831221845 | 92 | 0 | 0.0 | 2.0 | 0.00 | 0.00 | 0.00 | 56 | 1021.7 |
| 20260831221341 | 92 | 0 | 1.0 | 2.0 | 0.00 | 0.00 | 0.00 | 55 | 1021.7 |
| 20260831220836 | 93 | 352 | 0.0 | 1.0 | 0.00 | 0.00 | 0.00 | 54 | 1021.7 |
| 20260831220331 | 94 | 0 | 1.0 | 2.0 | 0.00 | 0.00 | 0.00 | 53 | 1021.9 |
| 20260831215826 | 93 | 0 | 0.0 | 2.0 | 0.00 | 0.00 | 0.00 | 54 | 1021.8 |
| 20260831215322 | 93 | 345 | 1.0 | 2.0 | 0.00 | 0.00 | 0.00 | 53 | 1021.7 |
| 20260831214818 | 92 | 331 | 1.0 | 3.0 | 0.00 | 0.00 | 0.00 | 52 | 1021.8 |
| 20260831214316 | 95 | 350 | 2.0 | 2.0 | 0.00 | 0.00 | 0.00 | 50 | 1021.7 |
| 20260831213810 | 95 | 294 | 0.0 | 3.0 | 0.00 | 0.00 | 0.00 | 49 | 1021.8 |
| 20260831213307 | 96 | 29 | 1.0 | 1.0 | 0.00 | 0.00 | 0.00 | 51 | 1022.1 |
| 20260831212802 | 96 | 345 | 1.0 | 2.0 | 0.00 | 0.00 | 0.00 | 52 | 1021.9 |
| 20260831212259 | 95 | 15 | 0.0 | 0.0 | 0.00 | 0.00 | 0.00 | 52 | 1022.0 |
| 20260831211757 | 95 | 3 | 3.0 | 5.0 | 0.00 | 0.00 | 0.00 | 49 | 1022.0 |
| 20260831211252 | 97 | 337 | 1.0 | 2.0 | 0.00 | 0.00 | 0.00 | 49 | 1022.1 |
| 20260831210746 | 96 | 29 | 0.0 | 3.0 | 0.00 | 0.00 | 0.00 | 49 | 1021.9 |
| 20260831210243 | 97 | 283 | 0.0 | 2.0 | 0.00 | 0.00 | 0.00 | 49 | 1021.8 |
| 20260831205742 | 97 | 352 | 0.0 | 1.0 | 0.00 | 0.00 | 0.00 | 51 | 1021.8 |
| 20260831205238 | 95 | 5 | 2.0 | 4.0 | 0.00 | 0.00 | 0.00 | 52 | 1022.1 |
| 20260831204738 | 94 | 340 | 1.0 | 4.0 | 0.00 | 0.00 | 0.00 | 51 | 1022.0 |
| 20260831204237 | 95 | 330 | 3.0 | 3.0 | 0.00 | 0.00 | 0.00 | 50 | 1022.0 |
| 20260831203736 | 95 | 214 | 0.0 | 0.0 | 0.00 | 0.00 | 0.00 | 51 | 1022.1 |
| 20260831203231 | 95 | 312 | 2.0 | 3.0 | 0.00 | 0.00 | 0.00 | 50 | 1022.0 |
| 20260831202729 | 94 | 337 | 2.0 | 4.0 | 0.00 | 0.00 | 0.00 | 49 | 1022.2 |
| 20260831202225 | 95 | 337 | 3.0 | 4.0 | 0.00 | 0.00 | 0.00 | 47 | 1022.2 |
| 20260831201719 | 93 | 288 | 3.0 | 5.0 | 0.00 | 0.00 | 0.00 | 54 | 1022.4 |
| 20260831201218 | 94 | 348 | 1.0 | 3.0 | 0.00 | 0.00 | 0.00 | 50 | 1022.3 |
| 20260831200714 | 94 | 0 | 1.0 | 4.0 | 0.00 | 0.00 | 0.00 | 49 | 1022.4 |
| 20260831200214 | 95 | 300 | 2.0 | 4.0 | 0.00 | 0.00 | 0.00 | 48 | 1022.2 |
| 20260831195710 | 95 | 41 | 5.0 | 6.0 | 0.00 | 0.00 | 0.00 | 46 | 1022.3 |
| 20260831195206 | 95 | 306 | 1.0 | 2.0 | 0.00 | 0.00 | 0.00 | 51 | 1022.4 |
| 20260831194700 | 95 | 97 | 0.0 | 2.0 | 0.00 | 0.00 | 0.00 | 49 | 1022.6 |
| 20260831194155 | 94 | 12 | 1.0 | 2.0 | 0.00 | 0.00 | 0.00 | 54 | 1022.8 |
| 20260831193649 | 93 | 14 | 3.0 | 4.0 | 0.00 | 0.00 | 0.00 | 50 | 1022.9 |
| 20260831193145 | 93 | 315 | 0.0 | 5.0 | 0.00 | 0.00 | 0.00 | 52 | 1022.9 |
| 20260831192640 | 94 | 304 | 5.0 | 5.0 | 0.00 | 0.00 | 0.00 | 52 | 1022.7 |
| 20260831192135 | 93 | 308 | 5.0 | 5.0 | 0.00 | 0.00 | 0.00 | 53 | 1022.6 |
| 20260831191631 | 93 | 346 | 3.0 | 5.0 | 0.00 | 0.00 | 0.00 | 52 | 1023.1 |
| 20260831191127 | 96 | 286 | 0.0 | 1.0 | 0.00 | 0.00 | 0.00 | 54 | 1022.6 |
| 20260831190622 | 93 | 294 | 0.0 | 2.0 | 0.00 | 0.00 | 0.00 | 55 | 1022.8 |
| 20260831190121 | 94 | 356 | 0.0 | 3.0 | 0.00 | 0.00 | 0.00 | 54 | 1022.8 |
| 20260831185616 | 93 | 344 | 0.0 | 2.0 | 0.00 | 0.00 | 0.00 | 54 | 1022.9 |
| 20260831185112 | 93 | 210 | 2.0 | 5.0 | 0.00 | 0.00 | 0.00 | 57 | 1023.0 |
| 20260831184611 | 93 | 74 | 0.0 | 3.0 | 0.00 | 0.00 | 0.00 | 59 | 1022.9 |
| 20260831184107 | 92 | 54 | 0.0 | 2.0 | 0.00 | 0.00 | 0.00 | 59 | 1023.1 |
| 20260831183601 | 93 | 4 | 2.0 | 3.0 | 0.00 | 0.00 | 0.00 | 58 | 1023.2 |
| 20260831183101 | 92 | 243 | 0.0 | 3.0 | 0.00 | 0.00 | 0.00 | 58 | 1023.3 |
| 20260831182600 | 92 | 320 | 3.0 | 3.0 | 0.00 | 0.00 | 0.00 | 61 | 1023.1 |
| 20260831182056 | 93 | 18 | 2.0 | 3.0 | 0.00 | 0.00 | 0.00 | 57 | 1023.3 |
| 20260831181555 | 93 | 23 | 1.0 | 3.0 | 0.00 | 0.00 | 0.00 | 59 | 1023.4 |
| 20260831181050 | 92 | 282 | 2.0 | 4.0 | 0.00 | 0.00 | 0.00 | 60 | 1023.4 |
| 20260831180545 | 92 | 280 | 3.0 | 3.0 | 0.00 | 0.00 | 0.00 | 59 | 1023.5 |
| 20260831180040 | 91 | 0 | 2.0 | 4.0 | 0.00 | 0.00 | 0.00 | 59 | 1023.5 |
| 20260831175535 | 92 | 334 | 0.0 | 4.0 | 0.00 | 0.00 | 0.00 | 57 | 1023.5 |
| 20260831175032 | 92 | 345 | 0.0 | 3.0 | 0.00 | 0.00 | 0.00 | 56 | 1023.5 |
| 20260831174527 | 91 | 14 | 1.0 | 4.0 | 0.00 | 0.00 | 0.00 | 58 | 1023.5 |
| 20260831174026 | 92 | 283 | 0.0 | 3.0 | 0.00 | 0.00 | 0.00 | 60 | 1023.6 |
| 20260831173525 | 91 | 283 | 2.0 | 3.0 | 0.00 | 0.00 | 0.00 | 63 | 1023.5 |
| 20260831173021 | 91 | 24 | 0.0 | 3.0 | 0.00 | 0.00 | 0.00 | 63 | 1023.5 |
| 20260831172516 | 90 | 105 | 0.0 | 2.0 | 0.00 | 0.00 | 0.00 | 64 | 1023.7 |
| 20260831172011 | 89 | 311 | 2.0 | 3.0 | 0.00 | 0.00 | 0.00 | 64 | 1023.5 |
| 20260831171507 | 90 | 320 | 2.0 | 5.0 | 0.00 | 0.00 | 0.00 | 62 | 1023.7 |
| 20260831171004 | 90 | 14 | 2.0 | 2.0 | 0.00 | 0.00 | 0.00 | 64 | 1023.7 |
| 20260831170459 | 91 | 29 | 0.0 | 1.0 | 0.00 | 0.00 | 0.00 | 68 | 1023.5 |
| 20260831165956 | 90 | 283 | 2.0 | 4.0 | 0.00 | 0.00 | 0.00 | 66 | 1023.8 |
| 20260831165451 | 91 | 29 | 2.0 | 4.0 | 0.00 | 0.00 | 0.00 | 61 | 1024.1 |
| 20260831164948 | 91 | 66 | 1.0 | 2.0 | 0.00 | 0.00 | 0.00 | 68 | 1024.0 |
| 20260831164444 | 90 | 352 | 0.0 | 1.0 | 0.00 | 0.00 | 0.00 | 69 | 1024.0 |
| 20260831163939 | 88 | 320 | 2.0 | 3.0 | 0.00 | 0.00 | 0.00 | 66 | 1024.2 |
| 20260831163434 | 88 | 0 | 0.0 | 3.0 | 0.00 | 0.00 | 0.00 | 65 | 1023.9 |
| 20260831162932 | 89 | 15 | 0.0 | 3.0 | 0.00 | 0.00 | 0.00 | 72 | 1024.2 |
| 20260831162428 | 88 | 300 | 0.0 | 3.0 | 0.00 | 0.00 | 0.00 | 71 | 1024.1 |
| 20260831161926 | 87 | 343 | 3.0 | 5.0 | 0.00 | 0.00 | 0.00 | 67 | 1024.2 |
| 20260831161424 | 88 | 340 | 0.0 | 5.0 | 0.00 | 0.00 | 0.00 | 69 | 1024.1 |
| 20260831160919 | 89 | 352 | 0.0 | 2.0 | 0.00 | 0.00 | 0.00 | 72 | 1024.2 |
| 20260831160413 | 87 | 30 | 2.0 | 3.0 | 0.00 | 0.00 | 0.00 | 71 | 1024.3 |
| 20260831155908 | 86 | 358 | 4.0 | 4.0 | 0.00 | 0.00 | 0.00 | 73 | 1024.2 |
| 20260831155403 | 87 | 21 | 3.0 | 4.0 | 0.00 | 0.00 | 0.00 | 71 | 1024.3 |
| 20260831154858 | 87 | 8 | 1.0 | 3.0 | 0.00 | 0.00 | 0.00 | 71 | 1024.3 |
| 20260831154355 | 87 | 250 | 3.0 | 3.0 | 0.00 | 0.00 | 0.00 | 72 | 1024.6 |
| 20260831153852 | 86 | 307 | 5.0 | 5.0 | 0.00 | 0.00 | 0.00 | 75 | 1024.5 |
| 20260831153349 | 87 | 0 | 0.0 | 3.0 | 0.00 | 0.00 | 0.00 | 73 | 1024.6 |
| 20260831152845 | 86 | 285 | 0.0 | 2.0 | 0.00 | 0.00 | 0.00 | 76 | 1024.5 |
| 20260831152340 | 85 | 305 | 3.0 | 3.0 | 0.00 | 0.00 | 0.00 | 73 | 1024.5 |
| 20260831151840 | 84 | 354 | 1.0 | 3.0 | 0.00 | 0.00 | 0.00 | 76 | 1024.5 |
| 20260831151339 | 83 | 352 | 0.0 | 3.0 | 0.00 | 0.00 | 0.00 | 77 | 1024.5 |
| 20260831150835 | 82 | 339 | 2.0 | 3.0 | 0.00 | 0.00 | 0.00 | 77 | 1024.6 |
| 20260831150330 | 82 | 251 | 2.0 | 3.0 | 0.00 | 0.00 | 0.00 | 81 | 1024.6 |
| 20260831145829 | 81 | 346 | 0.0 | 3.0 | 0.00 | 0.00 | 0.00 | 82 | 1024.7 |
| 20260831145326 | 82 | 294 | 2.0 | 2.0 | 0.00 | 0.00 | 0.00 | 83 | 1024.8 |
| 20260831144821 | 82 | 8 | 0.0 | 3.0 | 0.00 | 0.00 | 0.00 | 82 | 1024.5 |
| 20260831144317 | 81 | 66 | 0.0 | 3.0 | 0.00 | 0.00 | 0.00 | 85 | 1024.5 |
| 20260831143817 | 80 | 6 | 1.0 | 3.0 | 0.00 | 0.00 | 0.00 | 86 | 1024.6 |
| 20260831143312 | 79 | 29 | 2.0 | 2.0 | 0.00 | 0.00 | 0.00 | 88 | 1024.7 |
| 20260831142807 | 79 | 355 | 0.0 | 3.0 | 0.00 | 0.00 | 0.00 | 88 | 1024.5 |
| 20260831142305 | 79 | 348 | 2.0 | 2.0 | 0.00 | 0.00 | 0.00 | 89 | 1024.6 |
| 20260831141803 | 78 | 29 | 1.0 | 3.0 | 0.00 | 0.00 | 0.00 | 88 | 1024.4 |
| 20260831141257 | 78 | 55 | 0.0 | 3.0 | 0.00 | 0.00 | 0.00 | 90 | 1024.6 |
| 20260831140752 | 78 | 350 | 3.0 | 5.0 | 0.00 | 0.00 | 0.00 | 89 | 1024.6 |
| 20260831140246 | 78 | 69 | 0.0 | 4.0 | 0.00 | 0.00 | 0.00 | 91 | 1024.7 |
| 20260831135744 | 77 | 60 | 0.0 | 3.0 | 0.00 | 0.00 | 0.00 | 92 | 1024.4 |
| 20260831135240 | 76 | 345 | 1.0 | 3.0 | 0.00 | 0.00 | 0.00 | 95 | 1024.5 |
| 20260831134735 | 75 | 294 | 1.0 | 1.0 | 0.00 | 0.00 | 0.00 | 97 | 1024.6 |
| 20260831134232 | 75 | 29 | 0.0 | 1.0 | 0.00 | 0.00 | 0.00 | 99 | 1024.4 |
| 20260831133730 | 74 | 82 | 0.0 | 2.0 | 0.00 | 0.00 | 0.00 | 99 | 1024.5 |
| 20260831133225 | 74 | 319 | 2.0 | 2.0 | 0.00 | 0.00 | 0.00 | 99 | 1024.4 |
| 20260831132720 | 73 | 323 | 2.0 | 3.0 | 0.00 | 0.00 | 0.00 | 99 | 1024.5 |
| 20260831132215 | 73 | 324 | 0.0 | 2.0 | 0.00 | 0.00 | 0.00 | 99 | 1024.4 |
| 20260831131714 | 73 | 303 | 0.0 | 2.0 | 0.00 | 0.00 | 0.00 | 99 | 1024.3 |
| 20260831131211 | 73 | 328 | 0.0 | 3.0 | 0.00 | 0.00 | 0.00 | 99 | 1024.2 |
| 20260831130706 | 72 | 0 | 0.0 | 0.0 | 0.00 | 0.00 | 0.00 | 99 | 1024.4 |
| 20260831130202 | 72 | 352 | 0.0 | 2.0 | 0.00 | 0.00 | 0.00 | 99 | 1024.5 |
| 20260831125700 | 72 | 0 | 0.0 | 1.0 | 0.00 | 0.00 | 0.00 | 99 | 1024.4 |
| 20260831125156 | 72 | 354 | 0.0 | 3.0 | 0.00 | 0.00 | 0.00 | 99 | 1024.3 |
| 20260831124651 | 71 | 337 | 0.0 | 2.0 | 0.00 | 0.00 | 0.00 | 99 | 1024.4 |
| 20260831124148 | 71 | 354 | 0.0 | 0.0 | 0.00 | 0.00 | 0.00 | 99 | 1024.3 |
| 20260831123647 | 70 | 345 | 0.0 | 0.0 | 0.00 | 0.00 | 0.00 | 99 | 1024.5 |
| 20260831123146 | 70 | 286 | 0.0 | 0.0 | 0.00 | 0.00 | 0.00 | 99 | 1024.5 |
| 20260831122645 | 69 | 286 | 0.0 | 0.0 | 0.00 | 0.00 | 0.00 | 99 | 1024.4 |
| 20260831122142 | 68 | 286 | 0.0 | 0.0 | 0.00 | 0.00 | 0.00 | 99 | 1024.6 |
| 20260831121641 | 68 | 286 | 0.0 | 0.0 | 0.00 | 0.00 | 0.00 | 99 | 1024.3 |
| 20260831121138 | 68 | 286 | 0.0 | 0.0 | 0.00 | 0.00 | 0.00 | 99 | 1024.5 |
| 20260831120633 | 68 | 286 | 0.0 | 0.0 | 0.00 | 0.00 | 0.00 | 99 | 1024.5 |
| 20260831120127 | 68 | 286 | 0.0 | 0.0 | 0.00 | 0.00 | 0.00 | 99 | 1024.4 |
| 20260831115624 | 67 | 286 | 0.0 | 0.0 | 0.00 | 0.00 | 0.00 | 99 | 1024.5 |
| 20260831115119 | 67 | 286 | 0.0 | 0.0 | 0.00 | 0.00 | 0.00 | 99 | 1024.4 |
| 20260831114618 | 67 | 286 | 0.0 | 0.0 | 0.00 | 0.00 | 0.00 | 99 | 1024.4 |
| 20260831114113 | 67 | 286 | 0.0 | 1.0 | 0.00 | 0.00 | 0.00 | 99 | 1024.4 |
| 20260831113612 | 67 | 0 | 0.0 | 0.0 | 0.00 | 0.00 | 0.00 | 99 | 1024.4 |
| 20260831113108 | 66 | 0 | 0.0 | 0.0 | 0.00 | 0.00 | 0.00 | 99 | 1024.4 |
| 20260831112607 | 66 | 0 | 0.0 | 0.0 | 0.00 | 0.00 | 0.00 | 99 | 1024.1 |
| 20260831112102 | 66 | 0 | 0.0 | 0.0 | 0.00 | 0.00 | 0.00 | 99 | 1024.3 |
| 20260831111558 | 66 | 0 | 0.0 | 0.0 | 0.00 | 0.00 | 0.00 | 99 | 1024.4 |
| 20260831111054 | 66 | 0 | 0.0 | 0.0 | 0.00 | 0.00 | 0.00 | 99 | 1024.5 |
| 20260831110549 | 66 | 0 | 0.0 | 0.0 | 0.00 | 0.00 | 0.00 | 99 | 1024.4 |
| 20260831110044 | 66 | 0 | 0.0 | 0.0 | 0.00 | 0.00 | 0.00 | 99 | 1024.2 |
| 20260831105543 | 66 | 0 | 0.0 | 0.0 | 0.00 | 0.00 | 0.00 | 99 | 1024.3 |
| 20260831105038 | 66 | 0 | 0.0 | 0.0 | 0.00 | 0.00 | 0.00 | 99 | 1024.0 |
| 20260831104534 | 66 | 0 | 0.0 | 0.0 | 0.00 | 0.00 | 0.00 | 99 | 1024.3 |
| 20260831104030 | 66 | 0 | 0.0 | 0.0 | 0.00 | 0.00 | 0.00 | 99 | 1024.1 |
| 20260831103524 | 66 | 0 | 0.0 | 0.0 | 0.00 | 0.00 | 0.00 | 99 | 1024.2 |
| 20260831103021 | 66 | 0 | 0.0 | 0.0 | 0.00 | 0.00 | 0.00 | 99 | 1024.2 |
| 20260831102515 | 66 | 0 | 0.0 | 0.0 | 0.00 | 0.00 | 0.00 | 99 | 1024.1 |
| 20260831102010 | 66 | 0 | 0.0 | 0.0 | 0.00 | 0.00 | 0.00 | 99 | 1024.0 |